Glasgow, United Kingdom

6:35 AM GMT on November 23, 2017 (GMT +0000)
Glasgow

Weather History for EGPF - November, 2014

Change the Weather History Date:

Thursday, November 6, 2014

  Actual Average Record
Temperature  
Mean Temperature 44 °F -  
Max Temperature 53 °F 46 °F 57 °F (2003)
Min Temperature 35 °F 36 °F 26 °F (2011)
Degree Days  
Heating Degree Days 21    
Moisture  
Dew Point 44 °F    
Average Humidity 88    
Maximum Humidity 94    
Minimum Humidity 76    
Precipitation  
Precipitation 0.00 in - - ()
Sea Level Pressure  
Sea Level Pressure 29.34 in    
Wind  
Wind Speed 10 mph ()    
Max Wind Speed 18 mph    
Max Gust Speed 29 mph    
Visibility 5.9 miles    
Events Rain    
Averages and records for this station are not official NWS values.
T = Trace of Precipitation, MM = Missing Value Source: Averaged Metar Reports

Daily Weather History Graph

Daily Weather History Graph

Search for Another Location

Airport or City:

Trip Planner

Search our weather history database for the weather conditions in past years. The results will help you decide how hot, cold, wet, or windy it might be!

Date:

Astronomy

Nov. 06, 2014 Rise Set
Actual Time 7:34 AM GMT 4:27 PM GMT
Civil Twilight 6:54 AM GMT 5:07 PM GMT
Nautical Twilight 6:09 AM GMT 5:52 PM GMT
Astronomical Twilight 5:26 AM GMT 6:35 PM GMT
Moon 4:30 PM GMT (11/6) 6:40 AM GMT (11/6)
Length of Visible Light 10h 13m
Length of Day
8h 52m
Full, 100% of the Moon is Illuminated
Nov 6
Full
Nov 6
Full
Nov 14
Last Quarter
Nov 22
New
Nov 29
First Quarter

Hourly Weather History & Observations

Time (GMT) Temp. Windchill Dew Point Humidity Pressure Visibility Wind Dir Wind Speed Gust Speed Precip Events Conditions
12:20 AM 35.6 °F 29.9 °F 33.8 °F 93% 29.71 in 2.5 mi NE 6.9 mph - N/A   Scattered Clouds
12:50 AM 35.6 °F 30.7 °F 33.8 °F 93% 29.68 in 3.1 mi ENE 5.8 mph - N/A   Haze
1:20 AM 37.4 °F 31.4 °F 35.6 °F 93% 29.65 in 4.3 mi NE 8.1 mph - N/A   Overcast
1:50 AM 37.4 °F 30.8 °F 35.6 °F 93% 29.62 in 6.2 mi NE 9.2 mph - N/A   Overcast
2:20 AM 37.4 °F 30.3 °F 35.6 °F 93% 29.62 in 6.2 mi NE 10.4 mph - N/A   Mostly Cloudy
2:50 AM 39.2 °F 33.6 °F 35.6 °F 87% 29.59 in 6.2 mi NE 8.1 mph - N/A   Mostly Cloudy
3:20 AM 39.2 °F 34.2 °F 37.4 °F 93% 29.59 in 6.2 mi ENE 6.9 mph - N/A   Mostly Cloudy
3:50 AM 42.8 °F 38.6 °F 39.2 °F 87% 29.56 in 6.2 mi East 6.9 mph - N/A   Mostly Cloudy
4:20 AM 44.6 °F 38.4 °F 39.2 °F 81% 29.56 in 6.2 mi ESE 12.7 mph - N/A   Scattered Clouds
4:50 AM 44.6 °F 38.8 °F 37.4 °F 76% 29.53 in 6.2 mi SE 11.5 mph - N/A   Unknown
5:20 AM 44.6 °F 38.8 °F 37.4 °F 76% 29.53 in 6.2 mi SE 11.5 mph - N/A Rain Light Rain
5:50 AM 42.8 °F 37.0 °F 39.2 °F 87% 29.50 in 6.2 mi ESE 10.4 mph - N/A Rain Light Rain
6:20 AM 42.8 °F 36.6 °F 39.2 °F 87% 29.50 in 6.2 mi ESE 11.5 mph - N/A Rain Light Rain
6:50 AM 42.8 °F 36.6 °F 41.0 °F 93% 29.47 in 6.2 mi ESE 11.5 mph - N/A Rain Light Rain
7:20 AM 42.8 °F 36.6 °F 41.0 °F 93% 29.44 in 6.2 mi ESE 11.5 mph - N/A Rain Light Rain
7:50 AM 42.8 °F 36.6 °F 41.0 °F 93% 29.44 in 6.2 mi ESE 11.5 mph - N/A Rain Light Rain
8:20 AM 44.6 °F 39.2 °F 42.8 °F 93% 29.44 in 6.2 mi ESE 10.4 mph - N/A Rain Light Rain
8:50 AM 44.6 °F 38.4 °F 42.8 °F 93% 29.42 in 6.2 mi ESE 12.7 mph - N/A Rain Light Rain
9:20 AM 46.4 °F 40.7 °F 42.8 °F 87% 29.39 in 6.2 mi ESE 12.7 mph - N/A Rain Light Rain
9:50 AM 46.4 °F 41.1 °F 44.6 °F 93% 29.39 in 6.2 mi ESE 11.5 mph - N/A Rain Light Rain
10:20 AM 46.4 °F 41.9 °F 44.6 °F 93% 29.39 in 6.2 mi ESE 9.2 mph - N/A Rain Light Rain
10:50 AM 48.2 °F - 44.6 °F 87% 29.36 in 6.2 mi SE 10.4 mph - N/A Rain Light Rain
11:20 AM 48.2 °F - 44.6 °F 87% 29.36 in 6.2 mi SE 9.2 mph - N/A Rain Light Rain
11:50 AM 50.0 °F - 44.6 °F 82% 29.33 in 6.2 mi SSE 10.4 mph - N/A Rain Light Rain
12:20 PM 50.0 °F - 44.6 °F 82% 29.33 in 6.2 mi SSE 11.5 mph - N/A Rain Light Rain
12:50 PM 50.0 °F - 46.4 °F 87% 29.30 in 5.6 mi SSE 15.0 mph - N/A Rain Light Rain
1:20 PM 50.0 °F - 46.4 °F 87% 29.30 in 5.0 mi SSE 16.1 mph - N/A Rain Light Rain
1:50 PM 50.0 °F - 46.4 °F 87% 29.27 in 6.2 mi SSE 13.8 mph - N/A Rain Rain
2:20 PM 50.0 °F - 48.2 °F 94% 29.27 in 6.2 mi SSE 16.1 mph - N/A Rain Light Rain
2:50 PM 51.8 °F - 48.2 °F 88% 29.24 in 3.7 mi SE 13.8 mph 25.3 mph N/A Rain Light Rain
3:20 PM 51.8 °F - 48.2 °F 88% 29.24 in 6.2 mi SSE 13.8 mph - N/A   Mostly Cloudy
3:50 PM 51.8 °F - 48.2 °F 88% 29.21 in 6.2 mi SSE 15.0 mph - N/A Rain Light Rain
4:20 PM 51.8 °F - 48.2 °F 88% 29.21 in 6.2 mi SSE 17.3 mph - N/A Rain Light Drizzle
4:50 PM 51.8 °F - 48.2 °F 88% 29.21 in 6.2 mi SSE 16.1 mph - N/A   Partly Cloudy
5:20 PM 51.8 °F - 48.2 °F 88% 29.21 in 6.2 mi SSE 15.0 mph - N/A Rain Light Rain
5:50 PM 51.8 °F - 48.2 °F 88% 29.18 in 6.2 mi SSE 15.0 mph - N/A Rain Light Rain
6:20 PM 51.8 °F - 48.2 °F 88% 29.18 in 6.2 mi SSE 17.3 mph - N/A Rain Light Rain
6:50 PM 51.8 °F - 48.2 °F 88% 29.15 in 6.2 mi SSE 16.1 mph - N/A Rain Light Rain
7:20 PM 51.8 °F - 48.2 °F 88% 29.15 in 6.2 mi SSE 15.0 mph - N/A Rain Light Rain
7:50 PM 51.8 °F - 48.2 °F 88% 29.15 in 6.2 mi SSE 15.0 mph 26.5 mph N/A Rain Light Rain
8:20 PM 51.8 °F - 48.2 °F 88% 29.15 in 6.2 mi SE 17.3 mph 28.8 mph N/A Rain Light Rain
8:50 PM 53.6 °F - 48.2 °F 82% 29.12 in 6.2 mi SE 13.8 mph 25.3 mph N/A Rain Light Rain
9:20 PM 53.6 °F - 48.2 °F 82% 29.09 in 6.2 mi SE 15.0 mph - N/A   Mostly Cloudy
9:50 PM 53.6 °F - 48.2 °F 82% 29.09 in 6.2 mi SE 16.1 mph - N/A Rain Light Rain
10:20 PM 51.8 °F - 48.2 °F 88% 29.06 in 6.2 mi SE 13.8 mph - N/A Rain Light Rain
10:50 PM 53.6 °F - 48.2 °F 82% 29.06 in 6.2 mi SE 16.1 mph - N/A   Overcast
11:20 PM 53.6 °F - 50.0 °F 88% 29.03 in 6.2 mi SE 18.4 mph - N/A Rain Light Rain
11:50 PM 53.6 °F - 50.0 °F 88% 29.03 in 6.2 mi SE 18.4 mph - N/A Rain Light Rain